Hourly Data Report for June 18, 2021

LYTTON RCS
BRITISH COLUMBIA
Current Station Operator: ECCC - MSC

50°13'28.000" N
121°34'55.000" W
225.00 m
1114746
71765
VLY

Download Data

Hourly Data (June 2021)
Hourly Data Report for June 18, 2021
TIME
LST
Temp Definition
°C
Dew Point Definition
°C
Rel Hum Definition
%
Precip. Amount Definition
mm

Wind Dir Definition
10's deg

Wind Spd Definition
km/h
Visibility Definition
km
Stn Press Definition
kPa
Hmdx Definition


Wind Chill Definition


Weather Definition


00:00 20.6 6.9 41 0.0 20 23   99.00     LegendNANA
01:00 19.7 7.0 44 0.0 19 28   99.00     LegendNANA
02:00 18.5 7.1 47 0.0 18 27   98.99     LegendNANA
03:00 17.8 7.0 49 0.0 18 28   99.01     LegendNANA
04:00 17.1 7.0 51 0.0 17 29   99.04     LegendNANA
05:00 16.5 7.2 54 0.0 16 20   99.06     LegendNANA
06:00 16.7 7.4 54 0.0 16 17   99.10     LegendNANA
07:00 16.9 7.3 53 0.0 14 13   99.10     LegendNANA
08:00 19.8 7.4 45 0.0 17 22   99.02     LegendNANA
09:00 22.0 6.7 37 0.0 17 34   98.93     LegendNANA
10:00 23.8 6.4 33 0.0 18 29   98.81     LegendNANA
11:00 26.8 7.1 29 0.0 18 26   98.73 27   LegendNANA
12:00 28.4 6.9 26 0.0 18 22   98.67 28   LegendNANA
13:00 29.9 6.8 23 0.0 19 22   98.59 30   LegendNANA
14:00 29.9 6.6 23 0.0 17 26   98.52 30   LegendNANA
15:00 29.0 6.3 24 0.0 16 26   98.52 29   LegendNANA
16:00 28.0 6.4 26 0.0 17 28   98.50 28   LegendNANA
17:00 27.2 6.2 26 0.0 18 27   98.51 27   LegendNANA
18:00 26.3 6.5 28 0.0 17 25   98.51 26   LegendNANA
19:00 25.0 6.2 30 0.0 19 18   98.53 25   LegendNANA
20:00 23.9 6.3 32 0.0 20 17   98.56     LegendNANA
21:00 23.0 6.6 35 0.0 21 20   98.62     LegendNANA
22:00 22.1 6.8 37 0.0 20 21   98.68     LegendNANA
23:00 20.6 7.3 42 0.0 19 23   98.70     LegendNANA

Notes on Data Quality.

Legend

  • E = Estimated
  • M = Missing
  • NA = Not Available*
  • [empty] = Indicates an unobserved value
Date modified: